Content
SEND FEEDBACK

Daily
Averages
Monthly
Summary
United States of America

MALDEN, MISSOURI


Home > North America > United States > Missouri
Elevation: 295 feet     Latitude: 36 36N     Longitude: 089 59W

WEATHER
 
SELECT A DAY
Number of Records: 210,169;   Date Range: 1/1/95 - 9/30/14
 
SHARE

PRINT THIS DATA

[ ← Previous Day ]
WEATHER ALMANAC - APRIL 16, 2014
[ Next Day → ]
[ °C ]   °F
Weather ElementAverageHighLow
Temperature45.5 °F55 °F (2:53 pm)35.1 °F (4:53 am)
Dewpoint30.4 °F35.1 °F (11:53 pm)26.1 °F (11:53 am)
Humidity58 %82 % (1:53 am)37 % (5:53 pm)
Barometer30.22 in30.32 in (8:53 am)30.12 in (6:53 pm)
Wind Speed7.8 mph15 mph (4:53 pm)
Weather ElementAverage
Visibility10 mi
Wind DirectionENE (73.8 °)

Weather ElementTotal
Precipitation---
Heating Degree Days20 (Base 65)
Averaged from 21 records on April 16, 2014
WEATHER CONDITIONS BREAKOUT
WIND DIRECTION BREAKOUT
WEATHER BY HOUR - APRIL 16, 2014
[ °C ]   °F
Local TimeTemperatureDewpointHumidityBarometerVisibilityWind DirectionWind SpeedGust SpeedPrecipitationEventsConditions
1:53 AM37.0 °F32.0 °F82 %30.26 in10.0 miNorthClear
2:53 AM37.0 °F30.9 °F79 %30.25 in10.0 miNorthClear
3:53 AM36.0 °F30.9 °F82 %30.25 in10.0 miNorthClear
4:53 AM35.1 °F30.0 °F82 %30.25 in10.0 miNorthClear
5:53 AM36.0 °F27.0 °F70 %30.25 in10.0 miNorthClear
6:53 AM36.0 °F27.0 °F70 %30.28 in10.0 miNorthClear
7:53 AM39.9 °F28.9 °F65 %30.30 in10.0 miNorthClear
8:53 AM43.0 °F27.0 °F53 %30.32 in10.0 miNorthClear
9:53 AM46.0 °F28.0 °F50 %30.32 in10.0 miSSE (150°)10.4 mphClear
10:53 AM48.0 °F28.9 °F48 %30.31 in10.0 miSE (130°)11.5 mphClear
11:53 AM48.9 °F26.1 °F41 %30.29 in10.0 miSSE (160°)12.7 mphClear
1:53 PM53.1 °F30.0 °F41 %30.22 in10.0 miVariable5.8 mphClear
2:53 PM55.0 °F30.9 °F40 %30.19 in10.0 miSE (140°)11.5 mphClear
4:53 PM55.0 °F30.0 °F38 %30.14 in10.0 miSE (130°)15.0 mphClear
5:53 PM55.0 °F28.9 °F37 %30.13 in10.0 miSSE (150°)10.4 mphClear
6:53 PM54.0 °F32.0 °F43 %30.12 in10.0 miSSE (150°)8.1 mphClear
7:53 PM52.0 °F33.1 °F49 %30.12 in10.0 miSE (130°)4.6 mphClear
8:53 PM50.0 °F34.0 °F54 %30.13 in10.0 miCalmClear
9:53 PM48.0 °F34.0 °F58 %30.14 in10.0 miSE (140°)3.5 mphClear
10:53 PM46.9 °F34.0 °F61 %30.14 in10.0 miSSE (150°)4.6 mphClear
11:53 PM43.0 °F35.1 °F74 %30.16 in10.0 miESE (120°)3.5 mphClear
Hourly data recorded from KPOF, located miles away from Malden, Missouri







STORIES FROM OUR PARTNERS